TURKSAT 5A

Last updated on Sat Jun 21 2025 00:02:47 GMT+0000 (Coordinated Universal Time)

1 47306U 21001A 25171.29454322 .00000165 00000+0 00000+0 0 9991 2 47306 0.0392 86.2425 0000057 295.5112 23.9684 1.00271371 16337
UTC large
Height (km)
Speed (km/s)
/
Latitude / Longitude
Inclination (degrees)
Orbital Period (minutes)
Azimuth
Elevation
Range (km)
Doppler Factor

Next 0 passes for location: London (51.5072 / 0.1276)

Sorry there are no passes over London.